Showing default

OPS 6577 (VELA 5), 1458

Orbit data source: Space-Track

OPS 6577 (VELA 5), 1458 is a payload satellite owned by USAF SSD (US) in HEO that was launched on Tue, 20 Jul 1965 UTC via an ATLAS AGENA D launch vehicle from the Air Force Eastern Test Range (AFETR). Payloads include a variety of satellites, spacecraft, and rockets equipped with specific instruments for various scientific and technological missions. These include communications satellites like Starlink; space stations such as the ISS; scientific satellites like the Hubble; Earth observation satellites from companies like Planet Labs, Umbra, and HawkEye 360; GPS; miniature CubeSats for education and research; and military/defense satellites.

Loading next visibility...
OPS 6577 (VELA 5) details
Identifier
1458, 1965-058A
Orbit
HEO
Last TLE updatein 20 hours
Origin
Flag of USUSAF SSD (US)
ManufacturerTRW
MissionDefense Early Warn
Bus & MotorVELA, BE-3A
Mass~234 kg wet, 132 kg dry
Launch date (UTC)
1965-07-20 (59 years ago)
Launch vehicle
ATLAS AGENA D
Launch site
Air Force Eastern Test Range (AFETR)
Object type
Payload
Rocket body
Debris
Shape & HBRPoly, 1.4 m
Radar Cross Section2.240 m²

Expand to show TLE details & history

TLE from in 20 hours
0 OPS 6577 (VELA 5)
1  1458U 65058A   24357.48746223 -.00001099  00000-0  00000+0 0  9998
2  1458  24.1221  21.6412 4913743 296.9315 356.3830  0.21313446 85032
Epoch: 2024-12-22T11:41Z
Definitive object data (Epoch: 2024-12-22T11:41:56.736Z)
Latitude-22.82216°
Longitude44.83843°
Altitude54,087.612 km
Speed3.133 km/s
True Right ascension20h 47m 23s
True Declination-22° 48' 28"
Sunlit
Object was in daylight at TLE epoch
Visualization TLE readout
Latitude2.47251°
Longitude-70.74534°
Altitude114,847.263 km
Speed1.791 km/s
Apparent Right ascension13h 00m 06s
Apparent Declination0° 34' 01"
Sunlit
Object is in daylight
Visualization observer readout
Local Sidereal Time15:09:20
Azimuth224.99° SW
Elevation40.884°
Doppler factor1
Orbital elements
Apogee altitude170,180.051 km
Perigee altitude53,836.144 km
Semi-major axis118,386.234 km
Eccentricity0.4913743
Inclination24.1221°
RAAN21.6412°
Arg. of periapsis296.9315°
True anomaly347.88267°
Mean anomaly356.383°
Eccentric anomaly352.90618°
Mean motion0.05328 °/min
BSTARUnknown
Orbital period6756.33 mins
Loading maneuver chart data...
Loading historical data...
Loading historical data...
Loading historical data...
Loading historical data...
Loading historical data...
Loading historical data...
Loading historical data...

OPS 6577 (VELA 5) Visibility forecast

Observer location: undefined°, undefined

Span
Click to sort rows by Start time (UTC) header in descending order
Start Az.
Max El. time (UTC)
Max El. Az.
Max El.
End time (UTC)
End Az.
194 mins2024-12-21 16:06:56.696Z224.985° SW2024-12-21 16:06:56.696Z224.985° SW33.204°2024-12-21 19:20:56.696Z256.577° W
|